Погода в Гагаринском Хуторе

Россия / Орловская область     53°07′56″N   37°13′02″E
темп.,
°C
ветер,
м/с
пор.,
м/с
влажн.,
%
обл.,
%
осадки,
мм/ч
давл.,
гПа
погр.,
м
23 июня, ср
ср2300:00+20в45795 0.0 102069
03:00+19в34830 0.0 102053
06:00+20всв36851 0.0 1021115
09:00+25в47730 0.0 1021341
12:00+28в56630 0.0 1021859
15:00+29в45590 0.0 10201206
18:00+28в35700 0.0 1020300
21:00+23всв33835 0.0 102044
24 июня, чт
чт2400:00+21в34850 0.0 102164
03:00+20в34840 0.0 102152
06:00+21в34850 0.0 102193
09:00+26вюв34710 0.0 1021351
12:00+28вюв22610 0.0 1021931
15:00+30всв22555 0.0 10201235
18:00+29в236667 0.0 1019819
21:00+24ю11758 0.0 101911
25 июня, пт
пт2500:00+22в11844 0.0 101911
03:00+21вюв00865 0.0 101911
06:00+23всв12850 0.0 101945
09:00+26вюв23720 0.0 1018451
12:00+29вюв33595 0.4 10181310
15:00+29вюв22545 0.4 10171845
18:00+29ююв23640 0.0 1014932
21:00+23ю12780 0.4 101611
26 июня, сб
сб2600:00+20юв33891 0.7 101639
03:00+20юв228817 0.7 101511
06:00+21вюв22865 0.0 101555
09:00+25ююв22745 0.1 1015353
12:00+28ююв22619 0.2 10141036
15:00+30ююв2257100 0.2 10141596
18:00+29ююв226652 0.0 1013479
21:00+24юв22815 0.4 101314
27 июня, вс
вс2700:00+22юв228471 0.3 101318
03:00+21в228452 0.3 101311
06:00+22юв3486100 0.0 101387
09:00+26юв357367 0.1 1013391
12:00+29юв34608 0.0 1013875
15:00+30юв33565 0.0 10121272
18:00+27ююв487729 1.8 1012302
21:00+23ююв118470 2.7 101211